Location: Saluda
(35.2377°N, 82.3468°W)
Time: 04:09:43
(UTC+00:00)

Vanguard 2 Rocket - Pass Details

Date: 12 October 2022
Orbit: 555 x 3321 km, 32.9° (Epoch: 05 December)

Event Time Altitude Azimuth Distance (km) Brightness Sun altitude
Rises 08:10:38 0° 281° (W) 5,655 - -41.3°
Reaches altitude 10° 08:16:06 10° 268° (W) 4,076 - -40.3°
Maximum altitude 08:22:50 20° 226° (SW) 2,610 - -39.0°
Drops below altitude 10° 08:27:38 10° 180° (S) 2,759 - -38.1°
Sets 08:30:28 0° 163° (SSE) 3,394 - -37.6°
